星链-31209 (STARLINK-31209 )

导读

STARLINK-31209是美国SpaceX公司星链(Starlink)星座的第二代卫星,于2024年1月29日发射入轨。作为星链全球卫星互联网项目的组成部分,它运行在近地轨道,配备星间激光通信终端,可实现高速星际数据传输。该卫星旨在为全球偏远、无网络覆盖区域提供低延迟、高速宽带互联网服务,助力星链完成全球无缝网络覆盖的组网目标,推动天地一体化网络建设。

Basic Information
目录编号:
58883
目录名称:
STARLINK-31209
国际标识:
2024-020H
轨道中心:
EARTH
卫星名称:
星链-31209
卫星全名:
星链-31209 (STARLINK-31209 )
卫星状态:
在轨 (已飞行871 天)
发射日期:
2024-01-29 UTC
国别 :
美国 (US)
星等 :
--
Orbit Information
数据来源 国际轨道数据 AOE轨道数据
星历时间 2026-06-17T18:56:20+0800
20小时前
查看轨道信息
2026-06-17T16:00:00+0800
23小时前
查看轨道信息
半长轴 6840.886km 6840.832km
偏心率 0.000131 0.0001446
轨道倾角 53.160° 53.161°
近地点辐角 83.696° 84.942°
升交点赤经 217.755° 218.321°
平近点角 276.419° 318.421°
近地点 461.852km 461.705km
远地点 463.646km 463.685km
周期 93.849分钟 93.848分钟
每日圈数 15.343849 15.344028
Detailed Information
固有亮度:
5
最大亮度:
0.3
卫星平台:
Starlink v2.0 mini
覆盖范围:
全球
运营商:
太空探索技术公司
运营商所在国:
美国
制造商(研发单位):
太空探索技术公司
制造商所在国:
美国
使用方式:
暂无
Satellite Introduction
星链(Starlink)计划是由太空探索技术公司(SpaceX)提出的一个巨型低轨卫星互联网星座项目,计划在2019年至2024年间在太空搭建由约1.2万颗卫星组成的“星链”网络,其中1584颗将部署在地球上空550千米处的近地轨道,并从2020年开始工作。该卫星仍在工作。
2D Orbit Map
3D Orbit Map
Orbit Altitude Analysis Chart
Orbit Inclination Analysis Chart
Orbit Comprehensive Analysis Chart
View Comprehensive Chart